| time (UTC) | temp C | wind direction | speed KPH | gust KPH | rain 1hr cm | rain 24hr cm | rain mn cm | humidity % | barometer mb |
| 20260505221603 | 28 | 129 | 9.7 | 0.0 | 0.00 | 0.00 | 0.00 | 68 | 1004.9 |
| 20260505221035 | 29 | 128 | 6.4 | 0.0 | 0.00 | 0.00 | 0.00 | 68 | 1004.9 |
| 20260505220514 | 29 | 140 | 9.7 | 0.0 | 0.00 | 0.00 | 0.00 | 68 | 1005.0 |
| 20260505220019 | 28 | 142 | 12.9 | 0.0 | 0.00 | 0.00 | 0.00 | 69 | 1005.1 |
| 20260505215557 | 29 | 140 | 11.3 | 0.0 | 0.00 | 0.00 | 0.00 | 67 | 1005.1 |
| 20260505215027 | 29 | 137 | 9.7 | 0.0 | 0.00 | 0.00 | 0.00 | 68 | 1005.2 |
| 20260505214529 | 29 | 141 | 9.7 | 0.0 | 0.00 | 0.00 | 0.00 | 68 | 1005.2 |
| 20260505214003 | 29 | 130 | 9.7 | 0.0 | 0.00 | 0.00 | 0.00 | 68 | 1005.2 |
| 20260505213543 | 29 | 166 | 8.0 | 0.0 | 0.00 | 0.00 | 0.00 | 67 | 1005.2 |
| 20260505213036 | 29 | 151 | 9.7 | 0.0 | 0.00 | 0.00 | 0.00 | 68 | 1005.3 |
| 20260505212513 | 29 | 142 | 9.7 | 0.0 | 0.00 | 0.00 | 0.00 | 67 | 1005.5 |
| 20260505212048 | 30 | 120 | 9.7 | 0.0 | 0.00 | 0.00 | 0.00 | 68 | 1005.5 |
| 20260505211554 | 29 | 144 | 11.3 | 0.0 | 0.00 | 0.00 | 0.00 | 68 | 1005.5 |
| 20260505211025 | 29 | 135 | 9.7 | 0.0 | 0.00 | 0.00 | 0.00 | 68 | 1005.6 |
| 20260505210603 | 29 | 141 | 9.7 | 0.0 | 0.00 | 0.00 | 0.00 | 68 | 1005.6 |
| 20260505210006 | 29 | 146 | 11.3 | 0.0 | 0.00 | 0.00 | 0.00 | 68 | 1005.8 |
| 20260505205547 | 29 | 144 | 11.3 | 0.0 | 0.00 | 0.00 | 0.00 | 69 | 1005.8 |
| 20260505205016 | 29 | 140 | 9.7 | 0.0 | 0.00 | 0.00 | 0.00 | 68 | 1005.8 |
| 20260505204522 | 29 | 150 | 9.7 | 0.0 | 0.00 | 0.00 | 0.00 | 68 | 1005.9 |
| 20260505204058 | 29 | 131 | 9.7 | 0.0 | 0.00 | 0.00 | 0.00 | 70 | 1005.9 |
| 20260505203532 | 29 | 180 | 9.7 | 0.0 | 0.00 | 0.00 | 0.00 | 68 | 1005.8 |
| 20260505203037 | 30 | 133 | 8.0 | 0.0 | 0.00 | 0.00 | 0.00 | 66 | 1006.1 |
| 20260505202512 | 30 | 148 | 6.4 | 0.0 | 0.00 | 0.00 | 0.00 | 66 | 1006.1 |
| 20260505202048 | 30 | 134 | 6.4 | 0.0 | 0.00 | 0.00 | 0.00 | 67 | 1006.1 |
| 20260505201556 | 30 | 126 | 6.4 | 0.0 | 0.00 | 0.00 | 0.00 | 66 | 1006.3 |
| 20260505201021 | 29 | 207 | 4.8 | 0.0 | 0.00 | 0.00 | 0.00 | 66 | 1006.5 |
| 20260505200557 | 29 | 246 | 4.8 | 0.0 | 0.00 | 0.00 | 0.00 | 67 | 1006.5 |
| 20260505200059 | 28 | 213 | 6.4 | 0.0 | 0.00 | 0.00 | 0.00 | 68 | 1006.5 |
| 20260505195536 | 28 | 155 | 8.0 | 0.0 | 0.00 | 0.00 | 0.00 | 68 | 1006.4 |
| 20260505195007 | 28 | 256 | 9.7 | 0.0 | 0.00 | 0.00 | 0.00 | 68 | 1006.5 |
| 20260505194513 | 28 | 168 | 11.3 | 0.0 | 0.00 | 0.00 | 0.00 | 69 | 1006.7 |
| 20260505194051 | 28 | 152 | 11.3 | 0.0 | 0.00 | 0.00 | 0.00 | 69 | 1006.6 |
| 20260505193525 | 28 | 126 | 8.0 | 0.0 | 0.00 | 0.00 | 0.00 | 69 | 1006.7 |
| 20260505193032 | 28 | 137 | 8.0 | 0.0 | 0.00 | 0.00 | 0.00 | 68 | 1006.8 |
| 20260505192506 | 28 | 217 | 8.0 | 0.0 | 0.00 | 0.00 | 0.00 | 69 | 1006.8 |
| 20260505192048 | 28 | 163 | 6.4 | 0.0 | 0.00 | 0.00 | 0.00 | 68 | 1006.8 |
| 20260505191605 | 28 | 143 | 6.4 | 0.0 | 0.00 | 0.00 | 0.00 | 69 | 1006.9 |
| 20260505191027 | 28 | 136 | 8.0 | 0.0 | 0.00 | 0.00 | 0.00 | 69 | 1007.0 |
| 20260505190604 | 28 | 137 | 11.3 | 0.0 | 0.00 | 0.00 | 0.00 | 69 | 1007.1 |
| 20260505190059 | 28 | 156 | 9.7 | 0.0 | 0.00 | 0.00 | 0.00 | 69 | 1007.1 |
| 20260505185525 | 27 | 145 | 9.7 | 0.0 | 0.00 | 0.00 | 0.00 | 72 | 1007.0 |
| 20260505185102 | 27 | 128 | 8.0 | 0.0 | 0.00 | 0.00 | 0.00 | 71 | 1007.1 |
| 20260505184550 | 27 | 169 | 6.4 | 0.0 | 0.00 | 0.00 | 0.00 | 70 | 1007.2 |
| 20260505184025 | 27 | 232 | 6.4 | 0.0 | 0.00 | 0.00 | 0.00 | 72 | 1007.3 |
| 20260505183605 | 27 | 159 | 6.4 | 0.0 | 0.00 | 0.00 | 0.00 | 71 | 1007.3 |
| 20260505183113 | 27 | 145 | 4.8 | 0.0 | 0.00 | 0.00 | 0.00 | 71 | 1007.6 |
| 20260505182533 | 27 | 134 | 4.8 | 0.0 | 0.00 | 0.00 | 0.00 | 73 | 1007.7 |
| 20260505182002 | 27 | 135 | 6.4 | 0.0 | 0.00 | 0.00 | 0.00 | 73 | 1007.9 |
| 20260505181553 | 27 | 142 | 6.4 | 0.0 | 0.00 | 0.00 | 0.00 | 74 | 1007.9 |
| 20260505181029 | 26 | 166 | 8.0 | 0.0 | 0.00 | 0.00 | 0.00 | 74 | 1007.9 |
| 20260505180502 | 26 | 180 | 8.0 | 0.0 | 0.00 | 0.00 | 0.00 | 75 | 1007.9 |
| 20260505180006 | 26 | 138 | 8.0 | 0.0 | 0.00 | 0.00 | 0.00 | 76 | 1008.0 |
| 20260505175542 | 25 | 161 | 8.0 | 0.0 | 0.00 | 0.00 | 0.00 | 77 | 1007.9 |
| 20260505175018 | 25 | 151 | 8.0 | 0.0 | 0.00 | 0.00 | 0.00 | 76 | 1008.2 |
| 20260505174520 | 25 | 129 | 6.4 | 0.0 | 0.00 | 0.00 | 0.00 | 77 | 1008.3 |
| 20260505174104 | 25 | 175 | 4.8 | 0.0 | 0.00 | 0.00 | 0.00 | 78 | 1008.3 |
| 20260505173536 | 25 | 123 | 4.8 | 0.0 | 0.00 | 0.00 | 0.00 | 80 | 1008.3 |
| 20260505173049 | 25 | 186 | 6.4 | 0.0 | 0.00 | 0.00 | 0.00 | 79 | 1008.3 |
| 20260505172512 | 25 | 219 | 6.4 | 0.0 | 0.00 | 0.00 | 0.00 | 79 | 1008.3 |
| 20260505172051 | 25 | 175 | 4.8 | 0.0 | 0.00 | 0.00 | 0.00 | 81 | 1008.3 |
| 20260505171601 | 24 | 130 | 4.8 | 0.0 | 0.00 | 0.00 | 0.00 | 81 | 1008.3 |
| 20260505171032 | 24 | 190 | 6.4 | 0.0 | 0.00 | 0.00 | 0.00 | 83 | 1008.4 |
| 20260505170607 | 24 | 149 | 4.8 | 0.0 | 0.00 | 0.00 | 0.00 | 82 | 1008.3 |
| 20260505170015 | 23 | 133 | 4.8 | 0.0 | 0.00 | 0.00 | 0.00 | 83 | 1008.4 |
| 20260505165544 | 23 | 250 | 6.4 | 0.0 | 0.00 | 0.00 | 0.00 | 83 | 1008.4 |
| 20260505165025 | 23 | 205 | 4.8 | 0.0 | 0.00 | 0.00 | 0.00 | 83 | 1008.4 |
| 20260505164527 | 23 | 145 | 4.8 | 0.0 | 0.00 | 0.00 | 0.00 | 84 | 1008.4 |
| 20260505164106 | 23 | 213 | 4.8 | 0.0 | 0.00 | 0.00 | 0.00 | 85 | 1008.4 |
| 20260505163536 | 23 | 142 | 4.8 | 0.0 | 0.00 | 0.00 | 0.00 | 84 | 1008.4 |
| 20260505163040 | 23 | 198 | 4.8 | 0.0 | 0.00 | 0.00 | 0.00 | 84 | 1008.5 |
| 20260505162512 | 23 | 132 | 4.8 | 0.0 | 0.00 | 0.00 | 0.00 | 85 | 1008.5 |
| 20260505162051 | 23 | 133 | 6.4 | 0.0 | 0.00 | 0.00 | 0.00 | 85 | 1008.5 |
| 20260505161551 | 23 | 276 | 6.4 | 0.0 | 0.00 | 0.00 | 0.00 | 85 | 1008.5 |
| 20260505161020 | 23 | 151 | 4.8 | 0.0 | 0.00 | 0.00 | 0.00 | 86 | 1008.5 |
| 20260505160602 | 22 | 137 | 4.8 | 0.0 | 0.00 | 0.00 | 0.00 | 86 | 1008.4 |
| 20260505153025 | 22 | 142 | 6.4 | 0.0 | 0.00 | 0.00 | 0.00 | 87 | 1008.3 |
| 20260505152500 | 22 | 140 | 4.8 | 0.0 | 0.00 | 0.00 | 0.00 | 87 | 1008.4 |
| 20260505152040 | 22 | 172 | 4.8 | 0.0 | 0.00 | 0.00 | 0.00 | 87 | 1008.4 |
| 20260505151536 | 22 | 146 | 6.4 | 0.0 | 0.00 | 0.00 | 0.00 | 88 | 1008.5 |
| 20260505151010 | 22 | 126 | 6.4 | 0.0 | 0.00 | 0.00 | 0.00 | 87 | 1008.5 |
| 20260505150549 | 22 | 147 | 4.8 | 0.0 | 0.00 | 0.00 | 0.00 | 88 | 1008.4 |
| 20260505140505 | 21 | 135 | 6.4 | 0.0 | 0.00 | 0.00 | 0.00 | 88 | 1007.9 |
| 20260505125005 | 21 | 186 | 4.8 | 0.0 | 0.00 | 0.00 | 0.00 | 88 | 1007.4 |
| 20260505124511 | 21 | 157 | 4.8 | 0.0 | 0.00 | 0.00 | 0.00 | 89 | 1007.4 |
| 20260505124050 | 21 | 180 | 6.4 | 0.0 | 0.00 | 0.00 | 0.00 | 89 | 1007.4 |
| 20260505123522 | 21 | 150 | 6.4 | 0.0 | 0.00 | 0.00 | 0.00 | 89 | 1007.3 |
| 20260505123024 | 21 | 180 | 6.4 | 0.0 | 0.00 | 0.00 | 0.00 | 89 | 1007.1 |
| 20260505122603 | 21 | 144 | 6.4 | 0.0 | 0.00 | 0.00 | 0.00 | 89 | 1007.1 |
| 20260505122036 | 21 | 150 | 6.4 | 0.0 | 0.00 | 0.00 | 0.00 | 89 | 1006.9 |
| 20260505121540 | 21 | 185 | 6.4 | 0.0 | 0.00 | 0.00 | 0.00 | 89 | 1006.8 |
| 20260505121011 | 21 | 150 | 6.4 | 0.0 | 0.00 | 0.00 | 0.00 | 89 | 1006.8 |
| 20260505120544 | 21 | 149 | 6.4 | 0.0 | 0.00 | 0.00 | 0.00 | 89 | 1006.7 |
| 20260505120057 | 21 | 155 | 8.0 | 0.0 | 0.00 | 0.00 | 0.00 | 89 | 1006.6 |
| 20260505115511 | 21 | 138 | 6.4 | 0.0 | 0.00 | 0.00 | 0.00 | 89 | 1006.6 |
| 20260505115048 | 21 | 148 | 8.0 | 0.0 | 0.00 | 0.00 | 0.00 | 89 | 1006.6 |
| 20260505114550 | 21 | 183 | 6.4 | 0.0 | 0.00 | 0.00 | 0.00 | 89 | 1006.5 |
| 20260505114023 | 21 | 141 | 6.4 | 0.0 | 0.00 | 0.00 | 0.00 | 89 | 1006.6 |
| 20260505113558 | 21 | 147 | 6.4 | 0.0 | 0.00 | 0.00 | 0.00 | 88 | 1006.6 |
| 20260505113048 | 21 | 146 | 6.4 | 0.0 | 0.00 | 0.00 | 0.00 | 88 | 1006.7 |
| 20260505112523 | 21 | 140 | 4.8 | 0.0 | 0.00 | 0.00 | 0.00 | 88 | 1006.7 |
| 20260505112055 | 21 | 146 | 6.4 | 0.0 | 0.00 | 0.00 | 0.00 | 88 | 1006.6 |
| 20260505111600 | 21 | 134 | 6.4 | 0.0 | 0.00 | 0.00 | 0.00 | 88 | 1006.6 |
| 20260505111030 | 21 | 142 | 6.4 | 0.0 | 0.00 | 0.00 | 0.00 | 88 | 1006.7 |
| 20260505110502 | 21 | 178 | 6.4 | 0.0 | 0.00 | 0.00 | 0.00 | 88 | 1006.6 |
| 20260505102026 | 21 | 153 | 6.4 | 0.0 | 0.00 | 0.00 | 0.00 | 88 | 1006.7 |
| 20260505101532 | 21 | 136 | 6.4 | 0.0 | 0.00 | 0.00 | 0.00 | 88 | 1006.9 |
| 20260505101005 | 21 | 162 | 6.4 | 0.0 | 0.00 | 0.00 | 0.00 | 88 | 1006.8 |
| 20260505100543 | 21 | 135 | 6.4 | 0.0 | 0.00 | 0.00 | 0.00 | 88 | 1006.9 |
| 20260505100035 | 21 | 153 | 6.4 | 0.0 | 0.00 | 0.00 | 0.00 | 88 | 1007.0 |
| 20260505095511 | 21 | 145 | 6.4 | 0.0 | 0.00 | 0.00 | 0.00 | 88 | 1007.0 |
| 20260505095050 | 21 | 142 | 6.4 | 0.0 | 0.00 | 0.00 | 0.00 | 88 | 1007.1 |
| 20260505094555 | 21 | 155 | 6.4 | 0.0 | 0.00 | 0.00 | 0.00 | 88 | 1007.0 |
| 20260505094034 | 21 | 141 | 6.4 | 0.0 | 0.00 | 0.00 | 0.00 | 88 | 1007.1 |
| 20260505093504 | 21 | 148 | 6.4 | 0.0 | 0.00 | 0.00 | 0.00 | 88 | 1007.1 |
| 20260505093006 | 21 | 173 | 6.4 | 0.0 | 0.00 | 0.00 | 0.00 | 88 | 1007.1 |
| 20260505092548 | 21 | 148 | 6.4 | 0.0 | 0.00 | 0.00 | 0.00 | 87 | 1007.1 |
| 20260505092018 | 21 | 150 | 6.4 | 0.0 | 0.00 | 0.00 | 0.00 | 87 | 1007.2 |
| 20260505091526 | 21 | 143 | 6.4 | 0.0 | 0.00 | 0.00 | 0.00 | 87 | 1007.2 |
| 20260505091102 | 21 | 146 | 8.0 | 0.0 | 0.00 | 0.00 | 0.00 | 87 | 1007.3 |
| 20260505090533 | 21 | 140 | 8.0 | 0.0 | 0.00 | 0.00 | 0.00 | 87 | 1007.5 |
| 20260505090045 | 21 | 167 | 8.0 | 0.0 | 0.00 | 0.00 | 0.00 | 87 | 1007.5 |
| 20260505085515 | 21 | 142 | 6.4 | 0.0 | 0.00 | 0.00 | 0.00 | 87 | 1007.3 |
| 20260505085052 | 21 | 160 | 6.4 | 0.0 | 0.00 | 0.00 | 0.00 | 87 | 1007.5 |
| 20260505084556 | 21 | 133 | 6.4 | 0.0 | 0.00 | 0.00 | 0.00 | 87 | 1007.4 |
| 20260505084032 | 21 | 121 | 6.4 | 0.0 | 0.00 | 0.00 | 0.00 | 87 | 1007.4 |
| 20260505083504 | 21 | 159 | 6.4 | 0.0 | 0.00 | 0.00 | 0.00 | 87 | 1007.4 |
| 20260505083007 | 21 | 135 | 6.4 | 0.0 | 0.00 | 0.00 | 0.00 | 87 | 1007.4 |
| 20260505082545 | 21 | 134 | 8.0 | 0.0 | 0.00 | 0.00 | 0.00 | 86 | 1007.4 |
| 20260505082018 | 21 | 137 | 8.0 | 0.0 | 0.00 | 0.00 | 0.00 | 86 | 1007.6 |
| 20260505081519 | 21 | 141 | 8.0 | 0.0 | 0.00 | 0.00 | 0.00 | 86 | 1007.6 |
| 20260505081102 | 21 | 121 | 8.0 | 0.0 | 0.00 | 0.00 | 0.00 | 86 | 1007.8 |
| 20260505080533 | 21 | 163 | 8.0 | 0.0 | 0.00 | 0.00 | 0.00 | 86 | 1007.7 |
| 20260505080038 | 21 | 130 | 8.0 | 0.0 | 0.00 | 0.00 | 0.00 | 86 | 1007.8 |
| 20260505075602 | 21 | 131 | 8.0 | 0.0 | 0.00 | 0.00 | 0.00 | 86 | 1007.8 |
| 20260505075035 | 21 | 126 | 6.4 | 0.0 | 0.00 | 0.00 | 0.00 | 86 | 1007.8 |
| 20260505074541 | 21 | 153 | 8.0 | 0.0 | 0.00 | 0.00 | 0.00 | 86 | 1007.8 |
| 20260505074014 | 21 | 155 | 9.7 | 0.0 | 0.00 | 0.00 | 0.00 | 86 | 1007.9 |
| 20260505073549 | 21 | 149 | 8.0 | 0.0 | 0.00 | 0.00 | 0.00 | 86 | 1007.9 |
| 20260505073110 | 21 | 167 | 8.0 | 0.0 | 0.00 | 0.00 | 0.00 | 86 | 1007.9 |
| 20260505072527 | 21 | 275 | 8.0 | 0.0 | 0.00 | 0.00 | 0.00 | 86 | 1008.0 |
| 20260505072106 | 21 | 186 | 9.7 | 0.0 | 0.00 | 0.00 | 0.00 | 86 | 1008.0 |
| 20260505071516 | 21 | 132 | 9.7 | 0.0 | 0.00 | 0.00 | 0.00 | 86 | 1008.2 |
| 20260505071049 | 21 | 184 | 9.7 | 0.0 | 0.00 | 0.00 | 0.00 | 86 | 1008.2 |
| 20260505070524 | 21 | 170 | 8.0 | 0.0 | 0.00 | 0.00 | 0.00 | 86 | 1008.3 |
| 20260505070029 | 21 | 139 | 9.7 | 0.0 | 0.00 | 0.00 | 0.00 | 86 | 1008.4 |
| 20260505065505 | 21 | 151 | 9.7 | 0.0 | 0.00 | 0.00 | 0.00 | 86 | 1008.4 |
| 20260505065042 | 21 | 168 | 9.7 | 0.0 | 0.00 | 0.00 | 0.00 | 85 | 1008.6 |
| 20260505064544 | 21 | 123 | 9.7 | 0.0 | 0.00 | 0.00 | 0.00 | 85 | 1008.5 |
| 20260505064021 | 21 | 160 | 9.7 | 0.0 | 0.00 | 0.00 | 0.00 | 85 | 1008.6 |
| 20260505063600 | 21 | 129 | 9.7 | 0.0 | 0.00 | 0.00 | 0.00 | 85 | 1008.5 |
| 20260505063048 | 21 | 162 | 8.0 | 0.0 | 0.00 | 0.00 | 0.00 | 85 | 1008.5 |
| 20260505062521 | 21 | 158 | 9.7 | 0.0 | 0.00 | 0.00 | 0.00 | 85 | 1008.6 |
| 20260505062059 | 21 | 200 | 9.7 | 0.0 | 0.00 | 0.00 | 0.00 | 85 | 1008.7 |
| 20260505061553 | 21 | 123 | 9.7 | 0.0 | 0.00 | 0.00 | 0.00 | 85 | 1008.7 |
| 20260505061023 | 21 | 157 | 8.0 | 0.0 | 0.00 | 0.00 | 0.00 | 85 | 1008.7 |
| 20260505060605 | 21 | 142 | 8.0 | 0.0 | 0.00 | 0.00 | 0.00 | 85 | 1008.8 |
| 20260505060003 | 22 | 146 | 11.3 | 0.0 | 0.00 | 0.00 | 0.00 | 85 | 1008.8 |
| 20260505055541 | 22 | 183 | 12.9 | 0.0 | 0.00 | 0.00 | 0.00 | 85 | 1008.6 |
| 20260505055014 | 22 | 157 | 12.9 | 0.0 | 0.00 | 0.00 | 0.00 | 85 | 1008.8 |
| 20260505054527 | 22 | 213 | 11.3 | 0.0 | 0.00 | 0.00 | 0.00 | 85 | 1008.7 |
| 20260505054057 | 22 | 134 | 11.3 | 0.0 | 0.00 | 0.00 | 0.00 | 84 | 1008.8 |
| 20260505053534 | 22 | 143 | 11.3 | 0.0 | 0.00 | 0.00 | 0.00 | 84 | 1008.7 |
| 20260505053046 | 22 | 268 | 11.3 | 0.0 | 0.00 | 0.00 | 0.00 | 84 | 1008.6 |
| 20260505052511 | 22 | 141 | 11.3 | 0.0 | 0.00 | 0.00 | 0.00 | 84 | 1008.6 |
| 20260505052050 | 22 | 144 | 11.3 | 0.0 | 0.00 | 0.00 | 0.00 | 84 | 1008.6 |
| 20260505051553 | 22 | 131 | 11.3 | 0.0 | 0.00 | 0.00 | 0.00 | 84 | 1008.6 |
| 20260505051028 | 22 | 196 | 11.3 | 0.0 | 0.00 | 0.00 | 0.00 | 84 | 1008.7 |
| 20260505050601 | 22 | 148 | 11.3 | 0.0 | 0.00 | 0.00 | 0.00 | 84 | 1008.7 |
| 20260505041556 | 22 | 145 | 6.4 | 0.0 | 0.00 | 0.00 | 0.00 | 82 | 1008.8 |
| 20260505041025 | 22 | 142 | 6.4 | 0.0 | 0.00 | 0.00 | 0.00 | 81 | 1008.8 |
| 20260505040603 | 22 | 155 | 8.0 | 0.0 | 0.00 | 0.00 | 0.00 | 81 | 1008.8 |
| 20260505040048 | 22 | 189 | 8.0 | 0.0 | 0.00 | 0.00 | 0.00 | 81 | 1008.8 |
| 20260505035520 | 23 | 169 | 6.4 | 0.0 | 0.00 | 0.00 | 0.00 | 80 | 1008.8 |
| 20260505035103 | 23 | 153 | 6.4 | 0.0 | 0.00 | 0.00 | 0.00 | 79 | 1008.8 |
| 20260505034551 | 23 | 151 | 6.4 | 0.0 | 0.00 | 0.00 | 0.00 | 79 | 1008.8 |
| 20260505034025 | 23 | 143 | 8.0 | 0.0 | 0.00 | 0.00 | 0.00 | 79 | 1008.8 |
| 20260505033603 | 23 | 130 | 8.0 | 0.0 | 0.00 | 0.00 | 0.00 | 79 | 1008.8 |
| 20260505033052 | 23 | 141 | 8.0 | 0.0 | 0.00 | 0.00 | 0.00 | 79 | 1008.8 |
| 20260505032529 | 23 | 143 | 8.0 | 0.0 | 0.00 | 0.00 | 0.00 | 79 | 1008.7 |
| 20260505032001 | 23 | 148 | 8.0 | 0.0 | 0.00 | 0.00 | 0.00 | 78 | 1008.6 |
| 20260505031517 | 23 | 139 | 8.0 | 0.0 | 0.00 | 0.00 | 0.00 | 77 | 1008.7 |
| 20260505031041 | 23 | 163 | 8.0 | 0.0 | 0.00 | 0.00 | 0.00 | 77 | 1008.7 |
| 20260505030514 | 23 | 142 | 8.0 | 0.0 | 0.00 | 0.00 | 0.00 | 77 | 1008.7 |
| 20260505030003 | 23 | 169 | 8.0 | 0.0 | 0.00 | 0.00 | 0.00 | 76 | 1008.6 |
| 20260505025542 | 23 | 140 | 8.0 | 0.0 | 0.00 | 0.00 | 0.00 | 75 | 1008.5 |
| 20260505025014 | 23 | 155 | 8.0 | 0.0 | 0.00 | 0.00 | 0.00 | 75 | 1008.6 |
| 20260505024530 | 23 | 143 | 8.0 | 0.0 | 0.00 | 0.00 | 0.00 | 74 | 1008.6 |
| 20260505024059 | 23 | 146 | 4.8 | 0.0 | 0.00 | 0.00 | 0.00 | 73 | 1008.6 |
| 20260505023529 | 23 | 151 | 4.8 | 0.0 | 0.00 | 0.00 | 0.00 | 72 | 1008.6 |
| 20260505023034 | 24 | 144 | 4.8 | 0.0 | 0.00 | 0.00 | 0.00 | 72 | 1008.5 |
| 20260505022503 | 24 | 165 | 4.8 | 0.0 | 0.00 | 0.00 | 0.00 | 72 | 1008.6 |
| 20260505022046 | 24 | 186 | 4.8 | 0.0 | 0.00 | 0.00 | 0.00 | 71 | 1008.5 |
| 20260505021549 | 24 | 165 | 4.8 | 0.0 | 0.00 | 0.00 | 0.00 | 71 | 1008.5 |
| 20260505021022 | 24 | 160 | 8.0 | 0.0 | 0.00 | 0.00 | 0.00 | 71 | 1008.4 |
| 20260505020558 | 24 | 156 | 8.0 | 0.0 | 0.00 | 0.00 | 0.00 | 70 | 1008.3 |
| 20260505020049 | 24 | 167 | 8.0 | 0.0 | 0.00 | 0.00 | 0.00 | 70 | 1008.2 |
| 20260505015525 | 24 | 159 | 6.4 | 0.0 | 0.00 | 0.00 | 0.00 | 70 | 1008.3 |
| 20260505015106 | 24 | 189 | 6.4 | 0.0 | 0.00 | 0.00 | 0.00 | 70 | 1008.3 |
| 20260505014601 | 24 | 147 | 4.8 | 0.0 | 0.00 | 0.00 | 0.00 | 69 | 1008.4 |
| 20260505014025 | 24 | 153 | 6.4 | 0.0 | 0.00 | 0.00 | 0.00 | 69 | 1008.4 |
| 20260505013606 | 24 | 150 | 6.4 | 0.0 | 0.00 | 0.00 | 0.00 | 68 | 1008.4 |
| 20260505013105 | 25 | 137 | 4.8 | 0.0 | 0.00 | 0.00 | 0.00 | 68 | 1008.5 |
| 20260505012525 | 25 | 140 | 4.8 | 0.0 | 0.00 | 0.00 | 0.00 | 67 | 1008.4 |
| 20260505012101 | 25 | 144 | 4.8 | 0.0 | 0.00 | 0.00 | 0.00 | 66 | 1008.4 |
| 20260505011548 | 25 | 200 | 6.4 | 0.0 | 0.00 | 0.00 | 0.00 | 66 | 1008.4 |
| 20260505011018 | 25 | 140 | 8.0 | 0.0 | 0.00 | 0.00 | 0.00 | 65 | 1008.3 |
| 20260505010604 | 25 | 138 | 8.0 | 0.0 | 0.00 | 0.00 | 0.00 | 65 | 1008.4 |
| 20260505010051 | 25 | 140 | 4.8 | 0.0 | 0.00 | 0.00 | 0.00 | 64 | 1008.4 |
| 20260505005524 | 25 | 189 | 6.4 | 0.0 | 0.00 | 0.00 | 0.00 | 64 | 1008.4 |
| 20260505005104 | 25 | 158 | 6.4 | 0.0 | 0.00 | 0.00 | 0.00 | 64 | 1008.4 |
| 20260505004555 | 26 | 142 | 8.0 | 0.0 | 0.00 | 0.00 | 0.00 | 64 | 1008.4 |
| 20260505004028 | 26 | 202 | 9.7 | 0.0 | 0.00 | 0.00 | 0.00 | 64 | 1008.4 |
| 20260505003608 | 26 | 190 | 8.0 | 0.0 | 0.00 | 0.00 | 0.00 | 64 | 1008.3 |
| 20260505003005 | 26 | 142 | 6.4 | 0.0 | 0.00 | 0.00 | 0.00 | 64 | 1008.4 |
| 20260505002543 | 26 | 130 | 8.0 | 0.0 | 0.00 | 0.00 | 0.00 | 64 | 1008.3 |
| 20260505002022 | 26 | 138 | 8.0 | 0.0 | 0.00 | 0.00 | 0.00 | 63 | 1008.3 |
| 20260505001519 | 26 | 145 | 8.0 | 0.0 | 0.00 | 0.00 | 0.00 | 63 | 1008.2 |
| 20260505001057 | 26 | 169 | 9.7 | 0.0 | 0.00 | 0.00 | 0.00 | 63 | 1008.3 |
| 20260505000532 | 26 | 142 | 12.9 | 0.0 | 0.00 | 0.00 | 0.00 | 62 | 1008.2 |
| 20260505000055 | 26 | 179 | 12.9 | 0.0 | 0.00 | 0.00 | 0.00 | 61 | 1008.2 |
| 20260504235506 | 27 | 144 | 9.7 | 0.0 | 0.00 | 0.00 | 0.00 | 61 | 1008.3 |
| 20260504235042 | 27 | 140 | 9.7 | 0.0 | 0.00 | 0.00 | 0.00 | 61 | 1008.3 |
| 20260504234531 | 27 | 139 | 9.7 | 0.0 | 0.00 | 0.00 | 0.00 | 61 | 1008.3 |
| 20260504234006 | 27 | 132 | 11.3 | 0.0 | 0.00 | 0.00 | 0.00 | 61 | 1008.3 |
| 20260504233543 | 27 | 148 | 11.3 | 0.0 | 0.00 | 0.00 | 0.00 | 61 | 1008.4 |
| 20260504233036 | 27 | 142 | 9.7 | 0.0 | 0.00 | 0.00 | 0.00 | 61 | 1008.5 |
| 20260504232514 | 27 | 149 | 11.3 | 0.0 | 0.00 | 0.00 | 0.00 | 60 | 1008.6 |
| 20260504232047 | 27 | 161 | 11.3 | 0.0 | 0.00 | 0.00 | 0.00 | 59 | 1008.6 |
| 20260504231536 | 27 | 168 | 8.0 | 0.0 | 0.00 | 0.00 | 0.00 | 59 | 1008.6 |
| 20260504231008 | 27 | 169 | 9.7 | 0.0 | 0.00 | 0.00 | 0.00 | 58 | 1008.6 |
| 20260504230548 | 27 | 157 | 9.7 | 0.0 | 0.00 | 0.00 | 0.00 | 59 | 1008.6 |
| 20260504225523 | 27 | 157 | 9.7 | 0.0 | 0.00 | 0.00 | 0.00 | 58 | 1008.7 |
| 20260504225101 | 28 | 142 | 9.7 | 0.0 | 0.00 | 0.00 | 0.00 | 58 | 1008.8 |
| 20260504224550 | 28 | 170 | 9.7 | 0.0 | 0.00 | 0.00 | 0.00 | 57 | 1008.7 |
| 20260504224022 | 28 | 234 | 11.3 | 0.0 | 0.00 | 0.00 | 0.00 | 58 | 1008.9 |
| 20260504223604 | 28 | 146 | 11.3 | 0.0 | 0.00 | 0.00 | 0.00 | 57 | 1008.9 |
| 20260504223002 | 28 | 98 | 9.7 | 0.0 | 0.00 | 0.00 | 0.00 | 58 | 1009.0 |
| 20260504222540 | 28 | 147 | 9.7 | 0.0 | 0.00 | 0.00 | 0.00 | 57 | 1009.1 |
| 20260504222009 | 27 | 182 | 11.3 | 0.0 | 0.00 | 0.00 | 0.00 | 59 | 1009.1 |